Forside
METAR-TAF:

METAR-TAF

Lufthavne :

Charlotte, Michigan, USA

Breddekreds: 42-34-28N, længdekreds: 084-48-41W, højde: 271 m

Aktuelle vejr

Denne rapport blev lavet for 11 minutter siden, kl. 14:15 UTC
Vind 6 kt fra nordnordøst
Temperatur 3°C
Fugtighed 93%
Tryk 1016 hPa
Sigt: 11.3 km
Overskyet i en højde af 700 ft
let regn

METAR: KFPK 311415Z AUTO 03006KT 7SM -RA OVC007 03/02 A3001 RMK AO2 T00300015

Tid: 10:26 (14:26 UTC)


TAF: fraværende

Vejrobservationer og prognoser fra mere end 4000 lufthavne (METAR og TAF).

De gule og røde prikker repræsenterer de meteorologiske stationer.

Flyt musen over at se navnet på stationen.

Så klik over at se vejr observationer og prognoser.

At skifte det kort: Klik på de grønne knapper med et sort kors for at zoome ind; på den grønne knap med en bindestreg for at zoome ud; eller på de grønne pile for tilstødende kort.


METAR-TAF: